Temperature
-1 -1 -1 -1 -1 -1 -1 -1 -1 -1 -1 -1 -1 -2 -2 -2 -2 -2 -2 -2 -2 -3 -3 -3 -3 -3 -3 -3 -4 -4 -4 -4 -4 -4 -3 -3 -3 -3 -3 -3 -2 -2 -2
-2 -2 -2 -2 -2 -2 -2 -2 -2 -2 -2 -2 -2 -2 -2 -3 -3 -3 -3 -3 -3 -3 -3 -3 -3 -4 -4 -4 -4 -4 -4 -4 -5 -4 -4 -4 -4 -4 -4 -3 -3 -3 -3
-2 -2 -2 -3 -3 -2 -3 -3 -3 -3 -3 -3 -3 -3 -3 -3 -3 -3 -3 -3 -4 -4 -4 -4 -4 -4 -4 -4 -5 -5 -5 -5 -5 -5 -5 -4 -4 -4 -4 -4 -4 -4 -4
-3 -3 -3 -3 -3 -3 -3 -3 -3 -3 -3 -3 -4 -4 -4 -4 -4 -4 -4 -4 -4 -4 -5 -5 -5 -5 -5 -5 -5 -5 -5 -5 -5 -5 -5 -5 -5 -5 -5 -5 -5 -4 -4
-4 -4 -4 -4 -4 -4 -4 -4 -4 -4 -4 -4 -4 -4 -4 -4 -4 -5 -5 -5 -5 -5 -5 -5 -5 -5 -6 -6 -6 -6 -6 -6 -6 -6 -6 -6 -6 -6 -5 -6 -6 -5 -5
-4 -4 -4 -4 -4 -5 -5 -5 -5 -5 -5 -5 -5 -5 -5 -5 -5 -5 -6 -5 -6 -6 -6 -6 -6 -6 -6 -6 -6 -6 -6 -6 -6 -6 -6 -6 -6 -6 -6 -6 -6 -6 -6
-5 -5 -5 -5 -5 -5 -5 -5 -5 -5 -5 -5 -5 -6 -6 -6 -6 -6 -6 -6 -6 -6 -6 -6 -6 -6 -6 -6 -6 -6 -6 -6 -6 -6 -6 -6 -6 -6 -7 -7 -7 -7 -7
-6 -6 -6 -6 -6 -6 -6 -6 -6 -6 -6 -6 -6 -6 -6 -6 -6 -7 -7 -7 -7 -7 -7 -7 -7 -7 -7 -7 -7 -7 -7 -7 -7 -7 -7 -7 -7 -7 -7 -7 -7 -7 -7
-6 -6 -6 -6 -6 -6 -6 -6 -6 -6 -6 -6 -7 -7 -7 -7 -7 -7 -7 -7 -7 -7 -7 -7 -7 -7 -7 -7 -7 -7 -7 -7 -7 -7 -7 -7 -7 -7 -7 -7 -7 -8 -8
-7 -7 -7 -7 -7 -7 -7 -7 -7 -7 -7 -7 -7 -7 -7 -7 -7 -7 -8 -8 -8 -8 -8 -8 -8 -8 -8 -7 -7 -7 -7 -7 -7 -7 -7 -7 -7 -7 -8 -8 -8 -8 -8
-7 -7 -7 -7 -7 -7 -7 -7 -7 -8 -8 -8 -8 -8 -8 -8 -8 -8 -8 -8 -8 -8 -8 -8 -8 -8 -8 -8 -8 -8 -8 -8 -8 -8 -8 -8 -8 -8 -8 -8 -8 -8 -9
-8 -8 -8 -8 -8 -8 -8 -8 -8 -8 -8 -8 -8 -8 -8 -8 -8 -8 -8 -8 -8 -8 -8 -8 -8 -8 -8 -8 -8 -8 -8 -8 -8 -8 -8 -8 -8 -8 -8 -8 -9 -9 -9
-9 -8 -8 -8 -9 -9 -9 -9 -9 -9 -9 -9 -9 -9 -9 -9 -9 -8 -8 -9 -9 -9 -9 -9 -9 -9 -9 -8 -8 -8 -8 -8 -9 -9 -9 -9 -9 -9 -9 -9 -9 -9 -9
-9 -9 -9 -9 -9 -9 -9 -9 -9 -9 -9 -9 -9 -9 -9 -9 -9 -9 -9 -9 -9 -9 -9 -9 -9 -9 -9 -9 -9 -9 -9 -9 -9 -9 -10 -10 -10 -10 -10 -10 -10 -10 -10
-10 -10 -10 -10 -10 -10 -10 -10 -9 -9 -9 -9 -9 -9 -9 -9 -9 -9 -9 -9 -9 -9 -9 -9 -9 -9 -9 -9 -9 -9 -9 -10 -10 -10 -10 -10 -10 -10 -10 -10 -10 -10 -10
-10 -10 -10 -10 -10 -10 -10 -10 -10 -10 -10 -10 -10 -10 -10 -10 -10 -10 -10 -10 -10 -10 -10 -10 -10 -10 -10 -10 -10 -10 -10 -10 -10 -10 -10 -11 -11 -11 -11 -11 -11 -11 -11
-11 -11 -11 -11 -11 -11 -11 -11 -11 -11 -11 -10 -10 -10 -10 -10 -10 -10 -10 -10 -10 -10 -10 -10 -10 -10 -10 -10 -10 -10 -10 -11 -11 -11 -11 -11 -11 -11 -11 -11 -11 -12 -12
-11 -11 -11 -11 -11 -11 -11 -11 -11 -11 -11 -11 -11 -11 -11 -10 -10 -10 -10 -10 -10 -10 -11 -11 -11 -11 -11 -11 -11 -11 -11 -11 -11 -11 -11 -11 -11 -12 -12 -12 -12 -12 -12
-12 -12 -12 -12 -12 -12 -12 -11 -11 -11 -11 -11 -11 -11 -11 -11 -11 -11 -11 -11 -11 -11 -11 -11 -11 -11 -11 -11 -11 -12 -12 -12 -12 -12 -12 -12 -12 -12 -12 -12 -12 -12 -12
-12 -12 -12 -12 -12 -12 -12 -12 -12 -12 -11 -11 -11 -11 -11 -11 -11 -11 -11 -11 -11 -11 -11 -11 -11 -12 -12 -12 -12 -12 -12 -12 -12 -12 -12 -12 -12 -12 -12 -12 -13 -13 -13
-12 -12 -12 -12 -12 -12 -12 -12 -12 -12 -12 -12 -12 -12 -12 -12 -12 -11 -12 -12 -12 -12 -12 -12 -12 -12 -12 -12 -12 -12 -12 -12 -12 -12 -12 -12 -12 -13 -13 -13 -13 -13 -13
-13 -13 -12 -12 -12 -12 -12 -12 -12 -12 -12 -12 -12 -12 -12 -12 -12 -12 -12 -12 -12 -12 -12 -12 -12 -12 -12 -12 -12 -12 -13 -13 -13 -13 -13 -13 -13 -13 -13 -13 -13 -13 -13
-13 -13 -13 -13 -13 -13 -13 -12 -12 -13 -12 -12 -12 -12 -12 -12 -12 -12 -12 -12 -12 -12 -12 -12 -12 -12 -13 -13 -13 -13 -13 -13 -13 -13 -13 -13 -13 -13 -13 -13 -13 -13 -14
-13 -13 -13 -13 -13 -13 -13 -13 -13 -13 -13 -13 -13 -13 -13 -13 -13 -12 -12 -12 -13 -13 -13 -13 -13 -13 -13 -13 -13 -13 -13 -13 -13 -13 -13 -13 -13 -13 -13 -13 -14 -14 -14
-14 -14 -13 -13 -13 -13 -13 -13 -13 -13 -13 -13 -13 -13 -13 -13 -13 -13 -13 -13 -13 -13 -13 -13 -13 -13 -13 -13 -13 -13 -13 -13 -13 -13 -13 -14 -14 -13 -14 -14 -14 -14 -14
-14 -14 -14 -14 -14 -14 -14 -14 -14 -14 -14 -14 -14 -14 -14 -13 -13 -13 -13 -13 -13 -13 -13 -13 -13 -13 -13 -13 -13 -13 -13 -14 -14 -14 -14 -14 -14 -14 -14 -14 -14 -14 -14
Wind_Speed
4 3 3 3 3 4 4 4 3 3 3 3 3 3 3 3 3 3 3 3 3 3 3 4 4 3 3 3 2 2 3 3 6 6 4 3 4 5 8 9 10 9 9
3 3 3 3 3 3 3 3 3 3 3 3 3 3 4 4 4 4 4 4 4 4 4 4 4 4 4 3 3 3 4 4 5 7 5 4 4 4 5 6 8 8 8
3 3 3 3 3 3 3 2 2 3 3 3 3 4 4 4 4 4 4 4 4 5 5 5 5 5 5 4 4 4 4 5 4 5 6 4 3 4 4 5 6 6 8
2 3 3 3 3 3 2 3 2 2 3 3 3 4 4 4 4 5 5 5 5 5 5 5 5 5 6 5 6 5 4 4 4 4 5 4 4 4 3 4 5 4 5
2 2 2 2 2 3 3 2 2 2 2 2 2 3 4 4 5 5 6 6 5 5 5 5 6 7 8 7 6 4 4 4 4 4 5 5 4 3 3 3 5 4 4
1 1 1 1 2 2 2 2 2 2 2 2 3 3 4 4 7 8 6 5 5 5 5 5 6 7 8 10 10 10 8 6 6 5 5 6 6 4 3 4 4 5 5
1 1 1 1 2 2 2 2 2 2 2 2 3 3 4 5 8 8 8 5 4 5 5 5 5 6 7 5 8 10 9 11 11 7 7 7 6 5 4 5 6 6 7
1 1 1 2 2 1 2 2 2 2 2 3 3 4 4 6 8 8 8 4 3 4 5 5 6 5 6 6 5 6 6 7 8 7 6 7 6 6 6 6 7 6 7
1 1 2 2 2 2 2 2 2 2 2 3 3 3 4 5 8 8 7 3 3 4 5 5 5 5 9 9 6 5 6 6 9 11 11 11 12 11 9 5 5 5 7
1 1 1 2 3 3 3 2 2 2 2 3 3 3 4 5 7 7 6 3 3 4 4 5 7 8 9 9 5 5 6 6 5 6 7 8 7 8 10 6 5 5 5
1 1 1 2 3 3 2 2 2 2 2 3 3 3 3 5 6 7 7 3 4 4 4 4 5 9 10 10 8 5 7 6 4 4 4 4 4 4 4 5 5 5 6
1 1 2 2 2 2 2 2 2 2 3 3 3 3 3 4 5 6 6 5 4 3 4 3 5 9 9 9 7 7 8 6 3 3 3 4 3 3 3 4 5 6 7
1 1 2 2 2 2 3 3 2 2 3 3 3 3 3 2 3 6 6 6 6 3 3 6 7 8 7 5 6 7 6 3 2 3 4 4 3 3 3 4 4 5 6
2 2 2 2 2 2 2 3 3 3 3 3 3 3 3 2 2 3 3 3 5 4 3 5 7 7 6 5 5 4 2 2 3 3 3 3 2 3 3 3 4 4 5
2 2 2 2 2 2 2 3 3 4 5 4 4 3 3 4 5 6 4 3 3 4 3 2 2 2 2 2 2 2 2 2 3 2 3 3 3 4 4 3 4 4 5
3 2 2 2 2 2 2 2 5 5 7 7 6 5 5 6 8 7 7 6 6 6 4 2 2 2 3 3 3 2 2 2 3 3 3 3 4 4 4 4 4 4 5
3 3 3 2 2 3 2 2 2 4 5 6 6 6 6 7 7 7 7 6 5 4 2 2 2 2 2 2 2 2 3 3 3 3 3 3 4 4 4 4 4 5 5
3 4 3 3 3 3 3 3 2 2 3 3 4 6 6 6 7 6 5 3 2 2 2 2 3 2 2 2 3 3 3 3 3 3 4 4 4 4 4 5 5 5 6
3 3 3 3 3 3 3 3 3 3 3 3 3 4 5 6 5 5 3 1 2 2 2 3 3 3 3 3 3 3 3 4 4 4 4 4 4 4 5 5 5 8 7
3 5 4 3 3 3 3 3 3 3 3 3 3 3 3 3 2 2 2 2 2 3 3 3 3 3 3 3 3 3 4 4 4 4 4 4 4 4 5 6 6 6 6
3 4 5 4 3 3 3 3 3 3 3 3 4 5 5 3 3 3 3 3 3 3 3 3 3 3 3 3 3 4 5 5 5 4 4 4 4 4 5 5 5 6 6
3 3 3 3 3 3 3 3 3 3 4 4 4 4 6 3 2 3 3 3 3 3 3 3 3 4 4 4 4 4 5 5 5 5 5 5 5 5 5 5 5 6 6
3 3 3 3 3 4 4 3 3 3 4 4 3 3 3 3 3 3 3 3 3 3 3 4 4 4 5 5 6 6 6 6 6 5 5 5 5 5 5 6 6 7 7
3 4 3 3 3 3 3 3 3 3 3 3 3 3 3 3 3 4 3 3 3 4 4 5 5 6 7 7 8 8 9 10 9 8 7 7 7 6 6 6 6 7 7
3 3 3 3 3 3 3 3 3 3 3 3 3 3 3 3 3 4 3 4 4 4 5 6 6 7 8 9 10 10 12 14 13 10 8 7 7 7 6 6 6 7 7
3 3 3 3 3 3 3 3 3 3 3 3 3 3 3 3 4 4 4 4 4 5 5 6 8 9 10 10 11 13 14 14 14 13 9 7 7 6 6 6 7 7 7
Wind_Direction
175 176 175 176 166 165 168 171 173 175 179 183 191 195 200 209 212 212 222 222 226 239 240 240 247 250 254 257 254 250 253 252 267 280 279 279 280 289 297 297 294 291 292
173 171 174 170 159 162 168 170 173 181 193 196 199 203 211 215 212 213 225 230 228 232 234 238 247 250 248 251 251 250 252 251 260 276 284 283 277 277 286 289 297 297 295
170 174 172 168 162 165 171 172 181 187 194 208 207 209 215 218 219 224 223 227 232 234 232 233 240 241 248 248 250 253 254 265 265 269 278 278 279 283 289 294 295 297 295
157 172 174 174 171 169 172 176 186 196 199 206 213 220 221 226 232 232 230 230 230 236 239 238 239 241 245 244 249 246 249 259 263 264 271 276 278 280 277 288 295 293 293
160 167 175 172 169 169 175 184 189 200 216 214 216 231 236 234 231 226 226 230 229 235 243 247 247 252 255 254 253 240 237 247 253 262 269 276 274 279 275 281 292 298 290
158 169 161 160 165 172 176 183 198 204 212 220 228 233 239 246 246 247 244 229 231 235 244 248 250 258 263 266 269 265 256 247 244 251 261 262 268 268 272 280 286 294 290
166 170 174 185 188 187 189 194 208 211 214 227 233 238 246 248 253 253 255 246 234 239 244 249 259 258 266 258 266 270 270 268 265 257 253 258 262 261 266 274 276 279 278
178 182 198 198 205 196 190 207 225 226 221 229 236 237 249 258 260 258 261 255 245 248 249 245 248 251 254 254 252 257 256 262 265 264 254 257 262 261 254 263 269 276 280
206 214 215 206 209 211 215 219 230 231 242 241 240 238 244 259 264 260 264 240 245 249 252 252 251 244 254 260 259 261 268 267 270 269 269 269 271 274 275 269 267 273 280
247 253 243 221 215 218 222 230 242 245 248 256 262 253 244 251 262 263 264 236 241 248 252 254 260 261 261 263 252 246 259 267 271 277 277 280 280 280 280 268 260 265 278
283 268 258 233 226 221 213 225 228 242 242 244 258 263 254 259 270 271 268 244 235 246 253 252 256 267 269 271 269 252 260 272 266 264 264 266 269 270 271 268 261 259 267
280 265 255 236 228 227 205 217 220 222 232 240 249 258 257 262 272 276 272 272 275 258 258 256 260 271 275 278 278 271 275 282 274 266 269 268 269 273 279 278 276 273 266
284 268 259 257 242 226 207 215 219 217 230 242 244 253 262 266 272 280 277 283 288 281 267 273 278 278 282 285 283 281 282 276 265 265 269 272 274 275 281 284 284 283 284
279 274 269 259 253 231 232 227 225 227 230 237 244 251 260 263 256 258 265 280 285 287 281 279 287 289 285 283 284 286 275 257 259 262 270 276 279 278 277 278 282 287 288
279 267 268 268 266 258 255 248 244 233 233 233 230 234 240 252 257 264 264 255 254 261 276 267 266 271 266 267 267 259 255 260 269 261 262 269 276 279 281 279 279 285 283
279 270 264 263 263 263 265 281 277 271 267 265 260 257 251 258 268 270 273 274 275 272 272 254 257 264 263 267 266 275 279 272 268 266 261 260 267 273 279 281 281 280 281
269 268 260 258 257 259 259 259 281 290 284 280 275 274 273 273 276 277 277 279 277 273 260 250 249 252 260 263 270 273 275 276 277 270 266 264 267 271 273 277 278 278 280
270 266 262 254 254 253 254 254 255 265 283 287 284 278 278 279 280 281 283 287 278 273 254 252 257 256 259 263 266 270 275 277 273 270 267 265 262 265 269 272 272 271 276
273 264 257 252 251 251 253 254 253 257 262 272 285 283 283 286 282 280 283 259 253 258 258 256 258 258 259 259 261 265 266 267 269 268 265 265 264 263 267 269 272 276 280
273 271 271 254 245 248 247 247 250 252 257 260 260 266 276 282 277 276 270 259 253 257 259 258 258 256 256 257 259 259 263 266 268 267 267 266 265 261 263 266 268 270 273
288 279 277 273 255 250 247 246 249 251 256 260 261 264 266 248 244 249 252 253 250 252 254 258 257 254 254 254 256 258 260 262 263 264 267 268 266 265 265 264 266 268 272
293 289 279 269 264 259 258 249 249 252 257 262 267 270 273 270 254 253 255 261 258 252 249 250 255 255 253 251 253 254 258 259 259 259 263 267 269 267 265 265 266 268 269
296 293 289 278 269 267 273 264 255 253 257 259 264 268 268 262 257 256 257 260 261 262 263 258 259 262 264 261 254 246 249 253 254 253 260 265 263 263 261 261 262 266 267
309 301 294 290 284 269 262 261 257 256 258 262 264 263 260 259 260 261 260 259 261 265 266 264 260 260 264 266 264 258 255 256 255 249 248 252 257 260 260 260 262 263 267
319 312 309 301 292 284 274 269 267 265 264 264 264 265 266 264 263 263 257 257 260 262 265 267 264 263 263 264 265 263 264 268 268 259 247 246 249 251 253 256 260 264 266
324 320 314 309 304 295 284 277 274 273 272 271 268 266 267 267 266 265 261 259 262 266 268 268 264 264 267 268 268 268 270 272 273 271 259 245 243 247 247 253 255 258 264
Height
1462 1463 1465 1467 1469 1470 1472 1473 1475 1476 1478 1479 1480 1481 1482 1483 1484 1485 1486 1487 1487 1488 1488 1489 1489 1489 1490 1490 1490 1490 1490 1489 1487 1484 1485 1485 1485 1484 1484 1483 1483 1482 1481
1459 1460 1461 1463 1465 1466 1468 1469 1471 1472 1473 1475 1476 1477 1478 1479 1479 1480 1481 1482 1482 1483 1483 1484 1484 1484 1484 1485 1485 1485 1485 1484 1483 1481 1480 1480 1480 1479 1479 1478 1477 1477 1476
1455 1456 1458 1459 1461 1462 1464 1465 1467 1468 1469 1470 1471 1472 1473 1474 1474 1475 1476 1477 1477 1478 1479 1479 1479 1479 1479 1480 1480 1480 1479 1479 1478 1477 1475 1475 1474 1474 1474 1473 1473 1472 1472
1452 1453 1454 1455 1457 1458 1460 1461 1462 1463 1464 1466 1466 1467 1468 1469 1470 1470 1471 1472 1472 1473 1473 1474 1474 1474 1474 1475 1475 1474 1474 1474 1473 1472 1471 1470 1469 1469 1469 1469 1467 1467 1466
1449 1450 1451 1452 1454 1455 1456 1457 1458 1459 1460 1461 1462 1462 1463 1464 1464 1465 1466 1467 1467 1467 1468 1468 1468 1469 1469 1470 1470 1469 1469 1469 1469 1468 1466 1465 1465 1465 1465 1464 1463 1461 1461
1445 1446 1448 1449 1450 1451 1452 1453 1453 1454 1455 1456 1457 1458 1458 1459 1460 1461 1462 1462 1462 1462 1462 1462 1463 1463 1464 1464 1465 1465 1465 1465 1464 1463 1462 1461 1460 1461 1460 1460 1459 1457 1455
1442 1443 1444 1445 1446 1447 1448 1449 1449 1450 1451 1452 1453 1453 1454 1455 1455 1456 1457 1457 1457 1457 1457 1457 1457 1458 1459 1459 1459 1459 1459 1459 1460 1459 1457 1457 1456 1456 1456 1455 1454 1453 1451
1439 1440 1441 1441 1442 1443 1444 1444 1445 1446 1447 1447 1448 1449 1449 1450 1451 1451 1452 1452 1452 1452 1452 1452 1453 1453 1453 1454 1453 1453 1453 1453 1454 1453 1453 1452 1452 1452 1452 1451 1449 1447 1446
1436 1436 1437 1438 1438 1439 1440 1441 1442 1442 1443 1443 1444 1444 1445 1445 1446 1447 1447 1447 1447 1447 1447 1447 1448 1448 1448 1449 1449 1448 1448 1448 1448 1448 1448 1448 1448 1448 1447 1446 1444 1442 1439
1432 1433 1434 1435 1435 1435 1436 1437 1438 1439 1439 1439 1440 1441 1441 1441 1442 1442 1443 1442 1442 1442 1443 1443 1443 1444 1444 1444 1444 1444 1443 1443 1443 1443 1443 1442 1442 1442 1442 1441 1439 1438 1435
1430 1430 1431 1431 1432 1432 1433 1434 1434 1435 1435 1436 1436 1437 1437 1437 1438 1438 1439 1439 1438 1438 1438 1438 1439 1439 1440 1440 1440 1439 1439 1439 1438 1438 1437 1437 1436 1436 1436 1435 1434 1434 1432
1427 1427 1428 1428 1428 1429 1429 1430 1431 1431 1431 1432 1432 1433 1433 1434 1434 1434 1435 1435 1435 1435 1434 1434 1435 1435 1435 1435 1435 1435 1435 1435 1434 1433 1432 1432 1431 1431 1430 1430 1429 1428 1427
1424 1424 1424 1425 1425 1425 1426 1426 1427 1427 1428 1428 1428 1429 1429 1430 1430 1430 1430 1431 1431 1431 1430 1431 1431 1431 1431 1430 1430 1430 1430 1429 1429 1428 1428 1427 1427 1426 1425 1424 1423 1422 1421
1421 1421 1421 1421 1421 1422 1422 1423 1423 1423 1424 1424 1425 1425 1425 1426 1426 1426 1426 1426 1426 1426 1426 1426 1426 1426 1426 1426 1426 1425 1425 1425 1424 1424 1423 1423 1422 1421 1420 1419 1418 1417 1415
1418 1418 1418 1418 1418 1418 1419 1419 1419 1420 1421 1421 1421 1421 1421 1421 1422 1423 1423 1422 1422 1422 1422 1422 1422 1421 1421 1421 1421 1421 1420 1420 1420 1420 1419 1418 1417 1417 1416 1415 1413 1412 1410
1415 1415 1415 1415 1415 1415 1415 1416 1416 1417 1417 1418 1418 1418 1418 1419 1419 1419 1419 1419 1419 1419 1419 1418 1417 1417 1417 1417 1417 1416 1416 1416 1415 1415 1414 1414 1413 1412 1411 1410 1409 1408 1406
1412 1412 1412 1412 1412 1412 1412 1412 1412 1412 1413 1413 1414 1414 1414 1414 1414 1414 1414 1415 1415 1415 1414 1414 1413 1413 1413 1413 1413 1412 1412 1412 1411 1410 1410 1409 1408 1407 1406 1405 1404 1403 1401
1409 1409 1409 1409 1409 1409 1409 1409 1409 1408 1408 1408 1410 1410 1410 1410 1410 1410 1410 1410 1410 1410 1410 1410 1410 1409 1409 1409 1409 1408 1408 1407 1406 1406 1405 1404 1404 1403 1402 1400 1399 1398 1396
1406 1406 1406 1406 1406 1406 1406 1406 1406 1405 1405 1405 1405 1406 1406 1406 1406 1406 1406 1406 1405 1405 1406 1406 1406 1405 1405 1405 1404 1404 1403 1403 1402 1401 1400 1400 1399 1398 1397 1396 1394 1393 1392
1403 1403 1403 1402 1402 1402 1402 1402 1402 1402 1402 1402 1402 1402 1402 1402 1402 1402 1402 1402 1402 1402 1402 1402 1401 1401 1401 1400 1400 1399 1399 1398 1397 1396 1395 1395 1394 1393 1392 1391 1389 1388 1386
1400 1399 1400 1399 1399 1399 1399 1399 1399 1399 1399 1398 1398 1398 1398 1398 1398 1398 1398 1398 1398 1398 1397 1397 1397 1396 1396 1396 1395 1394 1394 1393 1392 1391 1390 1390 1389 1388 1387 1386 1384 1383 1381
1397 1397 1396 1396 1396 1396 1396 1396 1396 1395 1395 1395 1395 1395 1395 1395 1394 1394 1394 1394 1394 1394 1393 1393 1392 1392 1391 1391 1390 1389 1388 1388 1387 1386 1385 1384 1384 1383 1382 1380 1379 1378 1376
1395 1394 1394 1393 1393 1393 1393 1393 1392 1392 1392 1391 1391 1391 1391 1391 1390 1390 1390 1390 1389 1389 1389 1388 1387 1387 1386 1386 1385 1384 1383 1382 1382 1381 1380 1379 1378 1377 1376 1375 1374 1372 1371
1393 1392 1391 1391 1390 1390 1390 1389 1389 1389 1388 1388 1388 1387 1387 1387 1386 1386 1386 1385 1385 1384 1384 1383 1382 1382 1381 1380 1379 1379 1378 1377 1376 1376 1375 1374 1373 1372 1371 1370 1368 1367 1365
1391 1390 1389 1388 1387 1387 1387 1386 1386 1386 1385 1384 1384 1383 1383 1383 1382 1382 1381 1381 1380 1379 1379 1378 1377 1376 1376 1375 1374 1373 1372 1372 1371 1370 1369 1368 1367 1366 1365 1364 1363 1361 1360
1389 1387 1386 1385 1385 1384 1384 1383 1383 1382 1382 1381 1381 1380 1379 1379 1378 1377 1377 1376 1375 1375 1374 1373 1372 1371 1370 1369 1368 1367 1367 1366 1365 1365 1364 1362 1361 1360 1359 1358 1357 1356 1354